,,PA_Meas_PMT16A,,PR_Meas_QMR101_102,,RH_Meas_QMH101,,SR_Meas_QMS101,,TA_Meas_QMH101,,GenWind,,GenWind,
time,status,PA,status,PR,status,RH,status,SR,status,TA,status,DirAvg,status,SpdAvg,
2011-10-14, 00:00:04,VALID,918.583,VALID,0,VALID,96.5429,VALID,0,VALID,19.2348,VALID,196,VALID,0.638281,
2011-10-14, 00:01:04,VALID,918.593,VALID,0,VALID,96.5429,VALID,0,VALID,19.2543,VALID,196,VALID,0.404687,
2011-10-14, 00:02:04,VALID,918.584,VALID,0,VALID,96.5353,VALID,0,VALID,19.2558,VALID,148,VALID,0.942969,
2011-10-14, 00:03:04,VALID,918.555,VALID,0,VALID,96.5124,VALID,0,VALID,19.2153,VALID,155,VALID,0.976172,
2011-10-14, 00:04:04,VALID,918.574,VALID,0,VALID,96.5048,VALID,0,VALID,19.2348,VALID,148,VALID,0.588672,
2011-10-14, 00:05:04,VALID,918.55,VALID,0,VALID,96.5506,VALID,0,VALID,19.2348,VALID,148,VALID,0.625391,
2011-10-14, 00:06:04,VALID,918.554,VALID,0,VALID,96.5353,VALID,0,VALID,19.2543,VALID,148,VALID,0.691797,
2011-10-14, 00:07:04,VALID,918.544,VALID,0,VALID,96.5201,VALID,0,VALID,19.2543,VALID,148,VALID,0.414453,
2011-10-14, 00:08:04,VALID,918.504,VALID,0,VALID,96.4896,VALID,0,VALID,19.2543,VALID,168,VALID,0.708984,
2011-10-14, 00:09:04,VALID,918.487,VALID,0,VALID,96.4133,VALID,0,VALID,19.2543,VALID,168,VALID,0.775,
2011-10-14, 00:10:04,VALID,918.503,VALID,0,VALID,96.4057,VALID,0,VALID,19.2543,VALID,168,VALID,1.01406,
2011-10-14, 00:11:04,VALID,918.478,VALID,0,VALID,96.299,VALID,0,VALID,19.2348,VALID,168,VALID,1.13164,
2011-10-14, 00:12:04,VALID,918.478,VALID,0,VALID,96.3371,VALID,0,VALID,19.2738,VALID,168,VALID,0.643359,
2011-10-14, 00:13:04,VALID,918.461,VALID,0,VALID,96.3066,VALID,0,VALID,19.2543,VALID,168,VALID,0.610156,
2011-10-14, 00:14:04,VALID,918.493,VALID,0,VALID,96.2228,VALID,0,VALID,19.2738,VALID,168,VALID,0.928516,
2011-10-14, 00:15:04,VALID,918.481,VALID,0,VALID,96.2151,VALID,0,VALID,19.2738,VALID,168,VALID,0.632031,
2011-10-14, 00:16:04,VALID,918.513,VALID,0,VALID,96.1465,VALID,0,VALID,19.2738,VALID,168,VALID,0.51875,
2011-10-14, 00:17:04,VALID,918.505,VALID,0,VALID,96.0627,VALID,0,VALID,19.2543,VALID,168,VALID,0.607422,
2011-10-14, 00:18:04,VALID,918.513,VALID,0,VALID,96.0322,VALID,0,VALID,19.2543,VALID,168,VALID,0.632813,
2011-10-14, 00:19:04,VALID,918.488,VALID,0,VALID,96.0245,VALID,0,VALID,19.2738,VALID,168,VALID,0.248437,
2011-10-14, 00:20:04,VALID,918.487,VALID,0,VALID,96.0627,VALID,0,VALID,19.2933,VALID,168,VALID,0.203125,
2011-10-14, 00:21:04,VALID,918.465,VALID,0,VALID,96.0932,VALID,0,VALID,19.3323,VALID,168,VALID,0,
2011-10-14, 00:22:04,VALID,918.435,VALID,0,VALID,96.116,VALID,0,VALID,19.3518,VALID,168,VALID,0.0808594,
2011-10-14, 00:23:04,VALID,918.414,VALID,0,VALID,96.0779,VALID,0,VALID,19.3518,VALID,168,VALID,0,
2011-10-14, 00:24:04,VALID,918.384,VALID,0,VALID,96.0322,VALID,0,VALID,19.3713,VALID,168,VALID,0,
2011-10-14, 00:25:04,VALID,918.388,VALID,0,VALID,95.9712,VALID,0,VALID,19.3713,VALID,168,VALID,0.392188,
2011-10-14, 00:26:04,VALID,918.394,VALID,0,VALID,95.9102,VALID,0,VALID,19.3713,VALID,168,VALID,0.286328,
2011-10-14, 00:27:04,VALID,918.397,VALID,0,VALID,95.8416,VALID,0,VALID,19.3713,VALID,168,VALID,0.369922,
2011-10-14, 00:28:04,VALID,918.412,VALID,0,VALID,95.7425,VALID,0,VALID,19.3728,VALID,168,VALID,0.410156,
2011-10-14, 00:29:04,VALID,918.444,VALID,0,VALID,95.6281,VALID,0,VALID,19.3323,VALID,168,VALID,0.569922,
2011-10-14, 00:30:04,VALID,918.368,VALID,0,VALID,95.5443,VALID,0,VALID,19.2723,VALID,168,VALID,0.576953,
2011-10-14, 00:31:04,VALID,918.369,VALID,0,VALID,95.4299,VALID,0,VALID,19.2543,VALID,168,VALID,0.787891,
2011-10-14, 00:32:04,VALID,918.364,VALID,0,VALID,95.4223,VALID,0,VALID,19.2543,VALID,124,VALID,0.6875,
2011-10-14, 00:33:04,VALID,918.358,VALID,0,VALID,95.4223,VALID,0,VALID,19.2348,VALID,127,VALID,0.408984,
2011-10-14, 00:34:04,VALID,918.358,VALID,0,VALID,95.4452,VALID,0,VALID,19.2153,VALID,127,VALID,0.585156,
2011-10-14, 00:35:04,VALID,918.349,VALID,0,VALID,95.4223,VALID,0,VALID,19.2153,VALID,127,VALID,0.501172,
2011-10-14, 00:36:04,VALID,918.355,VALID,0,VALID,95.4375,VALID,0,VALID,19.1958,VALID,128,VALID,0.832812,
2011-10-14, 00:37:04,VALID,918.372,VALID,0,VALID,95.4223,VALID,0,VALID,19.1958,VALID,127,VALID,0.443359,
2011-10-14, 00:38:04,VALID,918.336,VALID,0,VALID,95.4528,VALID,0,VALID,19.1958,VALID,127,VALID,0.483984,
2011-10-14, 00:39:04,VALID,918.353,VALID,0,VALID,95.4223,VALID,0,VALID,19.1778,VALID,137,VALID,0.994531,
2011-10-14, 00:40:04,VALID,918.308,VALID,0,VALID,95.4833,VALID,0,VALID,19.1568,VALID,136,VALID,0.500391,
2011-10-14, 00:41:04,VALID,918.309,VALID,0,VALID,95.4757,VALID,0,VALID,19.1373,VALID,136,VALID,0.907422,
2011-10-14, 00:42:04,VALID,918.307,VALID,0,VALID,95.4833,VALID,0,VALID,19.1373,VALID,156,VALID,0.551953,
2011-10-14, 00:43:04,VALID,918.245,VALID,0,VALID,95.5519,VALID,0,VALID,19.1778,VALID,144,VALID,0.477344,
2011-10-14, 00:44:04,VALID,918.264,VALID,0,VALID,95.5367,VALID,0,VALID,19.1763,VALID,145,VALID,0.319922,
2011-10-14, 00:45:04,VALID,918.266,VALID,0,VALID,95.468,VALID,0,VALID,19.1568,VALID,146,VALID,0.651953,
2011-10-14, 00:46:04,VALID,918.228,VALID,0,VALID,95.4528,VALID,0,VALID,19.1763,VALID,158,VALID,0.499219,
2011-10-14, 00:47:04,VALID,918.232,VALID,0,VALID,95.4299,VALID,0,VALID,19.1568,VALID,137,VALID,0.849219,
2011-10-14, 00:48:04,VALID,918.195,VALID,0,VALID,95.4375,VALID,0,VALID,19.1763,VALID,137,VALID,0.984375,
2011-10-14, 00:49:04,VALID,918.201,VALID,0,VALID,95.3994,VALID,0,VALID,19.1958,VALID,137,VALID,0.572656,
2011-10-14, 00:50:04,VALID,918.181,VALID,0,VALID,95.4223,VALID,0,VALID,19.1763,VALID,137,VALID,0.666797,
2011-10-14, 00:51:04,VALID,918.156,VALID,0,VALID,95.4375,VALID,0,VALID,19.1958,VALID,137,VALID,0.573438,
2011-10-14, 00:52:04,VALID,918.202,VALID,0,VALID,95.4909,VALID,0,VALID,19.1958,VALID,137,VALID,0.716797,
2011-10-14, 00:53:04,VALID,918.18,VALID,0,VALID,95.4833,VALID,0,VALID,19.2153,VALID,137,VALID,0.982813,
2011-10-14, 00:54:04,VALID,918.2,VALID,0,VALID,95.4985,VALID,0,VALID,19.2153,VALID,137,VALID,0.651172,
2011-10-14, 00:55:04,VALID,918.181,VALID,0,VALID,95.4757,VALID,0,VALID,19.2153,VALID,137,VALID,0.580859,
2011-10-14, 00:56:04,VALID,918.191,VALID,0,VALID,95.4375,VALID,0,VALID,19.2153,VALID,138,VALID,0.734375,
2011-10-14, 00:57:04,VALID,918.169,VALID,0,VALID,95.4375,VALID,0,VALID,19.2348,VALID,155,VALID,0.744141,
2011-10-14, 00:58:04,VALID,918.175,VALID,0,VALID,95.3994,VALID,0,VALID,19.2153,VALID,154,VALID,0.379687,
2011-10-14, 00:59:04,VALID,918.126,VALID,0,VALID,95.3918,VALID,0,VALID,19.2363,VALID,154,VALID,0.430078,
2011-10-14, 01:00:04,VALID,918.159,VALID,0,VALID,95.4071,VALID,0,VALID,19.2153,VALID,154,VALID,0.586719,
2011-10-14, 01:01:04,VALID,918.153,VALID,0,VALID,95.4147,VALID,0,VALID,19.2153,VALID,154,VALID,0.413281,
2011-10-14, 01:02:04,VALID,918.098,VALID,0,VALID,95.4375,VALID,0,VALID,19.2363,VALID,154,VALID,0.164453,
2011-10-14, 01:03:04,VALID,918.056,VALID,0,VALID,95.5138,VALID,0,VALID,19.2348,VALID,154,VALID,0.409766,
2011-10-14, 01:04:04,VALID,918.069,VALID,0,VALID,95.5519,VALID,0,VALID,19.2543,VALID,154,VALID,0.628516,
2011-10-14, 01:05:04,VALID,918.067,VALID,0,VALID,95.5519,VALID,0,VALID,19.2543,VALID,154,VALID,0.440625,
2011-10-14, 01:06:04,VALID,918.058,VALID,0,VALID,95.529,VALID,0,VALID,19.2543,VALID,154,VALID,0.244922,
2011-10-14, 01:07:04,VALID,918.068,VALID,0,VALID,95.5367,VALID,0,VALID,19.2948,VALID,154,VALID,0,
2011-10-14, 01:08:04,VALID,918.018,VALID,0,VALID,95.4909,VALID,0,VALID,19.2933,VALID,154,VALID,0.377344,
2011-10-14, 01:09:04,VALID,918.032,VALID,0,VALID,95.4452,VALID,0,VALID,19.3128,VALID,154,VALID,0.478516,
2011-10-14, 01:10:04,VALID,918.016,VALID,0,VALID,95.3842,VALID,0,VALID,19.3323,VALID,154,VALID,0.413281,
2011-10-14, 01:11:04,VALID,918.008,VALID,0,VALID,95.3308,VALID,0,VALID,19.3518,VALID,154,VALID,0.00742187,
2011-10-14, 01:12:04,VALID,918.012,VALID,0,VALID,95.3308,VALID,0,VALID,19.3518,VALID,154,VALID,0.125,
2011-10-14, 01:13:04,VALID,918.006,VALID,0,VALID,95.3079,VALID,0,VALID,19.3323,VALID,154,VALID,0,
2011-10-14, 01:14:04,VALID,918.016,VALID,0,VALID,95.3232,VALID,0,VALID,19.3323,VALID,154,VALID,0,
2011-10-14, 01:15:04,VALID,917.999,VALID,0,VALID,95.3156,VALID,0,VALID,19.3128,VALID,154,VALID,0,
2011-10-14, 01:16:04,VALID,917.994,VALID,0,VALID,95.3689,VALID,0,VALID,19.3128,VALID,154,VALID,0,
2011-10-14, 01:17:04,VALID,917.992,VALID,0,VALID,95.4223,VALID,0.107441,VALID,19.3323,VALID,154,VALID,0.362109,
2011-10-14, 01:18:04,VALID,918.003,VALID,0,VALID,95.5062,VALID,0.107441,VALID,19.3503,VALID,154,VALID,0.3125,
2011-10-14, 01:19:04,VALID,917.989,VALID,0,VALID,95.5976,VALID,0,VALID,19.3698,VALID,154,VALID,0,
2011-10-14, 01:20:04,VALID,917.99,VALID,0,VALID,95.651,VALID,0.107441,VALID,19.3893,VALID,154,VALID,0,
2011-10-14, 01:21:04,VALID,917.962,VALID,0,VALID,95.5138,VALID,0.107441,VALID,19.3698,VALID,154,VALID,0,
2011-10-14, 01:22:04,VALID,917.979,VALID,0,VALID,95.3918,VALID,0.107441,VALID,19.3308,VALID,154,VALID,0,
2011-10-14, 01:23:04,VALID,917.987,VALID,0,VALID,95.3994,VALID,0.107441,VALID,19.3113,VALID,154,VALID,0,
2011-10-14, 01:24:04,VALID,917.964,VALID,0,VALID,95.468,VALID,0.107441,VALID,19.3308,VALID,154,VALID,0,
2011-10-14, 01:25:04,VALID,917.966,VALID,0,VALID,95.5519,VALID,0,VALID,19.3323,VALID,154,VALID,0,
2011-10-14, 01:26:04,VALID,917.968,VALID,0,VALID,95.6129,VALID,0.107441,VALID,19.3113,VALID,154,VALID,0,
2011-10-14, 01:27:04,VALID,917.987,VALID,0,VALID,95.651,VALID,0.107441,VALID,19.2918,VALID,154,VALID,0.496094,
2011-10-14, 01:28:04,VALID,917.984,VALID,0,VALID,95.6205,VALID,0.107441,VALID,19.2723,VALID,154,VALID,0.398438,
2011-10-14, 01:29:04,VALID,917.973,VALID,0,VALID,95.6205,VALID,0.107441,VALID,19.2528,VALID,154,VALID,0.438281,
2011-10-14, 01:30:04,VALID,918.002,VALID,0,VALID,95.5367,VALID,0.107441,VALID,19.1944,VALID,154,VALID,0.445703,
2011-10-14, 01:31:04,VALID,918.003,VALID,0,VALID,95.6205,VALID,0.107441,VALID,19.1554,VALID,154,VALID,0.323438,
2011-10-14, 01:32:04,VALID,918.027,VALID,0,VALID,95.7425,VALID,0,VALID,19.1568,VALID,154,VALID,0.305078,
2011-10-14, 01:33:04,VALID,918.001,VALID,0,VALID,95.8721,VALID,0,VALID,19.1568,VALID,154,VALID,0.204688,
2011-10-14, 01:34:04,VALID,918.021,VALID,0,VALID,95.9941,VALID,0,VALID,19.1958,VALID,154,VALID,0,
2011-10-14, 01:35:04,VALID,918.011,VALID,0,VALID,95.9941,VALID,0,VALID,19.1958,VALID,154,VALID,0.439453,
2011-10-14, 01:36:04,VALID,918.011,VALID,0,VALID,96.1008,VALID,0,VALID,19.2363,VALID,154,VALID,0.326172,
2011-10-14, 01:37:04,VALID,917.985,VALID,0,VALID,96.1008,VALID,0,VALID,19.2153,VALID,154,VALID,0.294922,
2011-10-14, 01:38:04,VALID,917.953,VALID,0,VALID,96.1389,VALID,0,VALID,19.2153,VALID,154,VALID,0.210156,
2011-10-14, 01:39:04,VALID,917.959,VALID,0,VALID,96.1541,VALID,0,VALID,19.2558,VALID,154,VALID,0.195313,
2011-10-14, 01:40:04,VALID,917.952,VALID,0,VALID,96.1999,VALID,0,VALID,19.2753,VALID,154,VALID,0.413281,
2011-10-14, 01:41:04,VALID,917.916,VALID,0,VALID,96.2151,VALID,0,VALID,19.2528,VALID,154,VALID,0.347656,
2011-10-14, 01:42:04,VALID,917.91,VALID,0,VALID,96.1846,VALID,0,VALID,19.2543,VALID,154,VALID,0.287109,
2011-10-14, 01:43:04,VALID,917.923,VALID,0,VALID,96.1618,VALID,0,VALID,19.2753,VALID,154,VALID,0.448047,
2011-10-14, 01:44:04,VALID,917.891,VALID,0,VALID,96.2151,VALID,0,VALID,19.2738,VALID,154,VALID,0.465625,
2011-10-14, 01:45:04,VALID,917.89,VALID,0,VALID,96.2228,VALID,0,VALID,19.2933,VALID,154,VALID,0.371875,
2011-10-14, 01:46:04,VALID,917.853,VALID,0,VALID,96.238,VALID,0,VALID,19.2933,VALID,154,VALID,0.442578,
2011-10-14, 01:47:04,VALID,917.839,VALID,0,VALID,96.2761,VALID,0,VALID,19.2738,VALID,154,VALID,0.458984,
2011-10-14, 01:48:04,VALID,917.817,VALID,0,VALID,96.2761,VALID,0,VALID,19.2738,VALID,154,VALID,0.378906,
2011-10-14, 01:49:04,VALID,917.807,VALID,0,VALID,96.238,VALID,0,VALID,19.2348,VALID,154,VALID,0.591016,
2011-10-14, 01:50:04,VALID,917.802,VALID,0,VALID,96.238,VALID,0,VALID,19.1763,VALID,154,VALID,0.686719,
2011-10-14, 01:51:04,VALID,917.748,VALID,0,VALID,96.3066,VALID,0,VALID,19.1568,VALID,154,VALID,0.676172,
2011-10-14, 01:52:04,VALID,917.757,VALID,0,VALID,96.3676,VALID,0,VALID,19.1568,VALID,154,VALID,0.74375,
2011-10-14, 01:53:04,VALID,917.762,VALID,0,VALID,96.4057,VALID,0,VALID,19.1568,VALID,154,VALID,0.383594,
2011-10-14, 01:54:04,VALID,917.768,VALID,0,VALID,96.4286,VALID,0,VALID,19.1373,VALID,154,VALID,0.553125,
2011-10-14, 01:55:04,VALID,917.733,VALID,0,VALID,96.5048,VALID,0,VALID,19.1568,VALID,154,VALID,0.790234,
2011-10-14, 01:56:04,VALID,917.746,VALID,0,VALID,96.5887,VALID,0,VALID,19.1778,VALID,122,VALID,1.06016,
2011-10-14, 01:57:04,VALID,917.715,VALID,0,VALID,96.5429,VALID,0,VALID,19.1583,VALID,111,VALID,1.0125,
2011-10-14, 01:58:04,VALID,917.713,VALID,0,VALID,96.5658,VALID,0,VALID,19.1388,VALID,111,VALID,1.00937,
2011-10-14, 01:59:04,VALID,917.662,VALID,0,VALID,96.5887,VALID,0,VALID,19.1178,VALID,111,VALID,0.911719,
2011-10-14, 02:00:04,VALID,917.689,VALID,0,VALID,96.5887,VALID,0,VALID,19.1388,VALID,111,VALID,1.08008,
2011-10-14, 02:01:04,VALID,917.659,VALID,0,VALID,96.5734,VALID,0,VALID,19.1193,VALID,111,VALID,0.675391,
2011-10-14, 02:02:04,VALID,917.653,VALID,0,VALID,96.5887,VALID,0,VALID,19.0983,VALID,115,VALID,0.762891,
2011-10-14, 02:03:04,VALID,917.618,VALID,0,VALID,96.6344,VALID,0,VALID,19.1178,VALID,115,VALID,1.09102,
2011-10-14, 02:04:04,VALID,917.592,VALID,0,VALID,96.642,VALID,0,VALID,19.1178,VALID,115,VALID,0.846484,
2011-10-14, 02:05:04,VALID,917.575,VALID,0,VALID,96.6192,VALID,0,VALID,19.1388,VALID,115,VALID,0.870313,
2011-10-14, 02:06:04,VALID,917.571,VALID,0,VALID,96.642,VALID,0,VALID,19.1583,VALID,115,VALID,0.851953,
2011-10-14, 02:07:04,VALID,917.561,VALID,0,VALID,96.6344,VALID,0,VALID,19.1583,VALID,115,VALID,0.911328,
2011-10-14, 02:08:04,VALID,917.548,VALID,0,VALID,96.642,VALID,0,VALID,19.1583,VALID,115,VALID,0.867188,
2011-10-14, 02:09:04,VALID,917.541,VALID,0,VALID,96.6497,VALID,0,VALID,19.1973,VALID,116,VALID,0.867188,
2011-10-14, 02:10:04,VALID,917.506,VALID,0,VALID,96.6268,VALID,0,VALID,19.1958,VALID,114,VALID,0.846484,
2011-10-14, 02:11:04,VALID,917.478,VALID,0,VALID,96.5734,VALID,0,VALID,19.2153,VALID,115,VALID,0.894531,
2011-10-14, 02:12:04,VALID,917.482,VALID,0,VALID,96.4972,VALID,0,VALID,19.1944,VALID,116,VALID,0.795703,
2011-10-14, 02:13:04,VALID,917.474,VALID,0,VALID,96.4362,VALID,0,VALID,19.2153,VALID,114,VALID,1.04727,
2011-10-14, 02:14:04,VALID,917.459,VALID,0,VALID,96.36,VALID,0,VALID,19.2363,VALID,115,VALID,0.715234,
2011-10-14, 02:15:04,VALID,917.508,VALID,0,VALID,96.3371,VALID,0,VALID,19.1958,VALID,115,VALID,1.17266,
2011-10-14, 02:16:04,VALID,917.496,VALID,0,VALID,96.3295,VALID,0,VALID,19.1958,VALID,116,VALID,0.4625,
2011-10-14, 02:17:04,VALID,917.495,VALID,0,VALID,96.3295,VALID,0,VALID,19.2153,VALID,115,VALID,0.767187,
2011-10-14, 02:18:04,VALID,917.478,VALID,0,VALID,96.2761,VALID,0,VALID,19.2153,VALID,115,VALID,0.675391,
2011-10-14, 02:19:04,VALID,917.465,VALID,0,VALID,96.1923,VALID,0,VALID,19.2348,VALID,115,VALID,0.647656,
2011-10-14, 02:20:04,VALID,917.465,VALID,0,VALID,96.1465,VALID,0,VALID,19.2348,VALID,115,VALID,0.30625,
2011-10-14, 02:21:04,VALID,917.475,VALID,0,VALID,96.1008,VALID,0,VALID,19.2558,VALID,115,VALID,0.223047,
2011-10-14, 02:22:04,VALID,917.464,VALID,0,VALID,96.0779,VALID,0,VALID,19.2558,VALID,115,VALID,0.132422,
2011-10-14, 02:23:04,VALID,917.449,VALID,0,VALID,96.0245,VALID,0,VALID,19.2543,VALID,115,VALID,0,
2011-10-14, 02:24:04,VALID,917.441,VALID,0,VALID,95.9864,VALID,0,VALID,19.2543,VALID,115,VALID,0,
2011-10-14, 02:25:04,VALID,917.435,VALID,0,VALID,95.9636,VALID,0,VALID,19.2348,VALID,115,VALID,0,
2011-10-14, 02:26:04,VALID,917.405,VALID,0,VALID,96.0017,VALID,0,VALID,19.2543,VALID,115,VALID,0,
2011-10-14, 02:27:04,VALID,917.403,VALID,0,VALID,96.0245,VALID,0,VALID,19.3143,VALID,115,VALID,0.259375,
2011-10-14, 02:28:04,VALID,917.393,VALID,0,VALID,96.0855,VALID,0,VALID,19.3128,VALID,115,VALID,0.173047,
2011-10-14, 02:29:04,VALID,917.367,VALID,0,VALID,96.0855,VALID,0,VALID,19.3518,VALID,115,VALID,0.346094,
2011-10-14, 02:30:04,VALID,917.362,VALID,0,VALID,95.9788,VALID,0,VALID,19.3713,VALID,116,VALID,0.3875,
2011-10-14, 02:31:04,VALID,917.35,VALID,0,VALID,95.9483,VALID,0,VALID,19.4118,VALID,114,VALID,0.192188,
2011-10-14, 02:32:04,VALID,917.346,VALID,0,VALID,95.895,VALID,0,VALID,19.4103,VALID,116,VALID,0.146094,
2011-10-14, 02:33:04,VALID,917.35,VALID,0,VALID,95.8035,VALID,0,VALID,19.4103,VALID,116,VALID,0.496875,
2011-10-14, 02:34:04,VALID,917.342,VALID,0,VALID,95.7196,VALID,0,VALID,19.4118,VALID,115,VALID,0.6,
2011-10-14, 02:35:04,VALID,917.342,VALID,0,VALID,95.6891,VALID,0,VALID,19.4103,VALID,115,VALID,0.685156,
2011-10-14, 02:36:04,VALID,917.346,VALID,0,VALID,95.6662,VALID,0,VALID,19.4493,VALID,115,VALID,0.502344,
2011-10-14, 02:37:04,VALID,917.35,VALID,0,VALID,95.59,VALID,0,VALID,19.4493,VALID,115,VALID,0.644141,
2011-10-14, 02:38:04,VALID,917.345,VALID,0,VALID,95.5748,VALID,0,VALID,19.4493,VALID,115,VALID,0.459375,
2011-10-14, 02:39:04,VALID,917.311,VALID,0,VALID,95.5519,VALID,0,VALID,19.4703,VALID,116,VALID,0.625781,
2011-10-14, 02:40:04,VALID,917.303,VALID,0,VALID,95.5214,VALID,0,VALID,19.4298,VALID,125,VALID,0.507422,
2011-10-14, 02:41:04,VALID,917.301,VALID,0,VALID,95.5443,VALID,0,VALID,19.4508,VALID,125,VALID,0.551953,
2011-10-14, 02:42:04,VALID,917.282,VALID,0,VALID,95.4909,VALID,0,VALID,19.4103,VALID,125,VALID,0.618359,
2011-10-14, 02:43:04,VALID,917.249,VALID,0,VALID,95.4909,VALID,0,VALID,19.3698,VALID,126,VALID,0.404687,
2011-10-14, 02:44:04,VALID,917.235,VALID,0,VALID,95.529,VALID,0,VALID,19.3908,VALID,125,VALID,0.44375,
2011-10-14, 02:45:04,VALID,917.193,VALID,0,VALID,95.5824,VALID,0,VALID,19.3908,VALID,126,VALID,0.417578,
2011-10-14, 02:46:04,VALID,917.179,VALID,0,VALID,95.6205,VALID,0,VALID,19.4103,VALID,125,VALID,0.0535156,
2011-10-14, 02:47:04,VALID,917.166,VALID,0,VALID,95.6129,VALID,0,VALID,19.4103,VALID,125,VALID,0.41875,
2011-10-14, 02:48:05,VALID,917.167,VALID,0,VALID,95.6662,VALID,0,VALID,19.4103,VALID,126,VALID,0.416406,
2011-10-14, 02:49:05,VALID,917.155,VALID,0,VALID,95.7044,VALID,0,VALID,19.4103,VALID,125,VALID,0.291797,
2011-10-14, 02:50:05,VALID,917.152,VALID,0,VALID,95.712,VALID,0,VALID,19.4298,VALID,125,VALID,0.265625,
2011-10-14, 02:51:05,VALID,917.13,VALID,0,VALID,95.7806,VALID,0,VALID,19.4298,VALID,125,VALID,0.2125,
2011-10-14, 02:52:05,VALID,917.12,VALID,0,VALID,95.773,VALID,0,VALID,19.4508,VALID,125,VALID,0.305859,
2011-10-14, 02:53:05,VALID,917.122,VALID,0,VALID,95.7806,VALID,0,VALID,19.4298,VALID,125,VALID,0.382813,
2011-10-14, 02:54:05,VALID,917.129,VALID,0,VALID,95.8111,VALID,0,VALID,19.4298,VALID,126,VALID,0.275781,
2011-10-14, 02:55:05,VALID,917.134,VALID,0,VALID,95.7958,VALID,0,VALID,19.4703,VALID,125,VALID,0.463672,
2011-10-14, 02:56:05,VALID,917.129,VALID,0,VALID,95.8111,VALID,0,VALID,19.4688,VALID,126,VALID,0.250391,
2011-10-14, 02:57:05,VALID,917.117,VALID,0,VALID,95.7577,VALID,0,VALID,19.4688,VALID,125,VALID,0.378125,
2011-10-14, 02:58:05,VALID,917.126,VALID,0,VALID,95.7425,VALID,0,VALID,19.4703,VALID,126,VALID,0.365625,
2011-10-14, 02:59:05,VALID,917.096,VALID,0,VALID,95.7577,VALID,0,VALID,19.4688,VALID,125,VALID,0.223047,
2011-10-14, 03:00:05,VALID,917.095,VALID,0,VALID,95.7501,VALID,0,VALID,19.4688,VALID,125,VALID,0.286719,
2011-10-14, 03:01:05,VALID,917.115,VALID,0,VALID,95.7577,VALID,0,VALID,19.4688,VALID,125,VALID,0.389062,
2011-10-14, 03:02:05,VALID,917.113,VALID,0,VALID,95.712,VALID,0,VALID,19.4493,VALID,125,VALID,0.571875,
2011-10-14, 03:03:05,VALID,917.078,VALID,0,VALID,95.6815,VALID,0,VALID,19.4298,VALID,125,VALID,0.1875,
2011-10-14, 03:04:05,VALID,917.121,VALID,0,VALID,95.6967,VALID,0,VALID,19.4298,VALID,125,VALID,0.151953,
2011-10-14, 03:05:05,VALID,917.105,VALID,0,VALID,95.7577,VALID,0,VALID,19.4298,VALID,125,VALID,0.376563,
2011-10-14, 03:06:05,VALID,917.103,VALID,0,VALID,95.8035,VALID,0,VALID,19.4298,VALID,125,VALID,0.321094,
2011-10-14, 03:07:05,VALID,917.081,VALID,0,VALID,95.8263,VALID,0,VALID,19.4298,VALID,125,VALID,0.169531,
2011-10-14, 03:08:05,VALID,917.063,VALID,0,VALID,95.8111,VALID,0,VALID,19.4493,VALID,125,VALID,0.295703,
2011-10-14, 03:09:05,VALID,917.052,VALID,0,VALID,95.7882,VALID,0,VALID,19.4298,VALID,125,VALID,0.400391,
2011-10-14, 03:10:05,VALID,917.054,VALID,0,VALID,95.8035,VALID,0,VALID,19.4298,VALID,126,VALID,0.366797,
2011-10-14, 03:11:05,VALID,917.018,VALID,0,VALID,95.8111,VALID,0,VALID,19.4298,VALID,125,VALID,0.438672,
2011-10-14, 03:12:05,VALID,917.038,VALID,0,VALID,95.8187,VALID,0,VALID,19.4298,VALID,125,VALID,0.713281,
2011-10-14, 03:13:05,VALID,916.992,VALID,0,VALID,95.8111,VALID,0,VALID,19.4298,VALID,125,VALID,0.559766,
2011-10-14, 03:14:05,VALID,916.996,VALID,0,VALID,95.8035,VALID,0,VALID,19.4298,VALID,126,VALID,0.475,
2011-10-14, 03:15:05,VALID,916.98,VALID,0,VALID,95.7882,VALID,0,VALID,19.3908,VALID,125,VALID,0.464063,
2011-10-14, 03:16:05,VALID,916.979,VALID,0,VALID,95.7501,VALID,0,VALID,19.3908,VALID,126,VALID,0.423438,
2011-10-14, 03:17:05,VALID,916.962,VALID,0,VALID,95.7882,VALID,0,VALID,19.3908,VALID,126,VALID,0.465234,
2011-10-14, 03:18:05,VALID,916.902,VALID,0,VALID,95.834,VALID,0,VALID,19.3713,VALID,126,VALID,0.43125,
2011-10-14, 03:19:05,VALID,916.902,VALID,0,VALID,95.8568,VALID,0,VALID,19.3713,VALID,126,VALID,0.357031,
2011-10-14, 03:20:05,VALID,916.884,VALID,0,VALID,95.8263,VALID,0,VALID,19.3323,VALID,126,VALID,0.273438,
2011-10-14, 03:21:05,VALID,916.894,VALID,0,VALID,95.773,VALID,0,VALID,19.3128,VALID,126,VALID,0.467578,
2011-10-14, 03:22:05,VALID,916.892,VALID,0,VALID,95.7425,VALID,0,VALID,19.2738,VALID,126,VALID,0.599219,
2011-10-14, 03:23:05,VALID,916.896,VALID,0,VALID,95.7501,VALID,0,VALID,19.2153,VALID,125,VALID,0.859766,
2011-10-14, 03:24:05,VALID,916.895,VALID,0,VALID,95.7654,VALID,0,VALID,19.1763,VALID,126,VALID,0.779297,
2011-10-14, 03:25:05,VALID,916.884,VALID,0,VALID,95.8263,VALID,0,VALID,19.1164,VALID,125,VALID,0.96875,
2011-10-14, 03:26:05,VALID,916.885,VALID,0,VALID,95.8263,VALID,0,VALID,19.0998,VALID,125,VALID,0.963672,
2011-10-14, 03:27:05,VALID,916.87,VALID,0,VALID,95.9178,VALID,0,VALID,19.0593,VALID,126,VALID,0.873047,
2011-10-14, 03:28:05,VALID,916.858,VALID,0,VALID,96.0245,VALID,0,VALID,19.0398,VALID,125,VALID,0.883984,
2011-10-14, 03:29:05,VALID,916.836,VALID,0,VALID,96.1084,VALID,0,VALID,19.0203,VALID,125,VALID,0.749609,
2011-10-14, 03:30:05,VALID,916.82,VALID,0,VALID,96.2304,VALID,0,VALID,19.0398,VALID,125,VALID,0.653125,
2011-10-14, 03:31:05,VALID,916.797,VALID,0,VALID,96.2914,VALID,0,VALID,19.0593,VALID,126,VALID,0.75,
2011-10-14, 03:32:05,VALID,916.756,VALID,0,VALID,96.3371,VALID,0,VALID,19.0593,VALID,125,VALID,0.717578,
2011-10-14, 03:33:05,VALID,916.768,VALID,0,VALID,96.4057,VALID,0.107441,VALID,19.0983,VALID,126,VALID,0.820703,
2011-10-14, 03:34:05,VALID,916.736,VALID,0,VALID,96.4362,VALID,0,VALID,19.1178,VALID,125,VALID,0.725,
2011-10-14, 03:35:05,VALID,916.729,VALID,0,VALID,96.3981,VALID,0,VALID,19.1178,VALID,125,VALID,0.735547,
2011-10-14, 03:36:05,VALID,916.716,VALID,0,VALID,96.3829,VALID,0,VALID,19.1359,VALID,125,VALID,0.801172,
2011-10-14, 03:37:05,VALID,916.701,VALID,0,VALID,96.36,VALID,0,VALID,19.1568,VALID,125,VALID,0.644141,
2011-10-14, 03:38:05,VALID,916.717,VALID,0,VALID,96.3371,VALID,0.107441,VALID,19.1359,VALID,125,VALID,0.676172,
2011-10-14, 03:39:05,VALID,916.722,VALID,0,VALID,96.3142,VALID,0,VALID,19.1568,VALID,125,VALID,0.851172,
2011-10-14, 03:40:05,VALID,916.73,VALID,0,VALID,96.3295,VALID,0,VALID,19.1568,VALID,125,VALID,0.867188,
2011-10-14, 03:41:05,VALID,916.753,VALID,0,VALID,96.2914,VALID,0,VALID,19.1763,VALID,125,VALID,0.847656,
2011-10-14, 03:42:05,VALID,916.75,VALID,0,VALID,96.3142,VALID,0,VALID,19.1958,VALID,125,VALID,0.822266,
2011-10-14, 03:43:05,VALID,916.762,VALID,0,VALID,96.2914,VALID,0,VALID,19.1958,VALID,125,VALID,0.790234,
2011-10-14, 03:44:05,VALID,916.748,VALID,0,VALID,96.238,VALID,0.107441,VALID,19.1958,VALID,125,VALID,0.701953,